Time,TemperatureF,DewpointF,PressureIn,WindDirection,WindDirectionDegrees,WindSpeedMPH,WindSpeedGustMPH,Humidity,HourlyPrecipIn,Conditions,Clouds,dailyrainin,SoftwareType,DateUTC
2013-04-13 00:11:00,74.1,68.9,29.76,SSE,157,0.0,-999.0,84,-99.99,,,0.00,Acu-Link.com,2013-04-13 04:11:00,
2013-04-13 00:26:00,73.4,68.9,29.77,SSE,157,0.0,-999.0,86,-99.99,,,0.00,Acu-Link.com,2013-04-13 04:26:00,
2013-04-13 00:42:00,73.2,69.1,29.76,SSE,157,0.0,-999.0,87,-99.99,,,0.00,Acu-Link.com,2013-04-13 04:42:00,
2013-04-13 00:57:00,73.0,68.9,29.75,ESE,112,1.1,-999.0,87,-99.99,,,0.00,Acu-Link.com,2013-04-13 04:57:00,
2013-04-13 01:12:00,72.9,68.8,29.75,WNW,292,0.0,-999.0,87,-99.99,,,0.00,Acu-Link.com,2013-04-13 05:12:00,
2013-04-13 01:28:00,72.5,68.4,29.75,ESE,112,0.0,-999.0,87,-99.99,,,0.00,Acu-Link.com,2013-04-13 05:28:00,
2013-04-13 01:43:00,72.3,68.2,29.75,SE,135,1.7,-999.0,87,-99.99,,,0.00,Acu-Link.com,2013-04-13 05:43:00,
2013-04-13 01:58:00,72.3,68.9,29.75,WNW,292,0.0,-999.0,89,-99.99,,,0.00,Acu-Link.com,2013-04-13 05:58:00,
2013-04-13 02:13:00,72.1,68.7,29.75,ESE,112,0.0,-999.0,89,-99.99,,,0.00,Acu-Link.com,2013-04-13 06:13:00,
2013-04-13 02:29:00,71.6,68.2,29.74,ESE,112,0.0,-999.0,89,-99.99,,,0.00,Acu-Link.com,2013-04-13 06:29:00,
2013-04-13 02:44:00,71.2,68.4,29.73,SE,135,0.0,-999.0,91,-99.99,,,0.00,Acu-Link.com,2013-04-13 06:44:00,
2013-04-13 02:59:00,71.1,68.3,29.73,South,180,0.0,-999.0,91,-99.99,,,0.00,Acu-Link.com,2013-04-13 06:59:00,
2013-04-13 03:14:00,71.1,68.7,29.73,SE,135,0.0,-999.0,92,-99.99,,,0.00,Acu-Link.com,2013-04-13 07:14:00,
2013-04-13 03:30:00,71.1,69.0,29.72,ESE,112,1.7,-999.0,93,-99.99,,,0.00,Acu-Link.com,2013-04-13 07:30:00,
2013-04-13 03:45:00,71.2,69.1,29.72,East,90,0.0,-999.0,93,-99.99,,,0.00,Acu-Link.com,2013-04-13 07:45:00,
2013-04-13 04:00:00,71.1,69.0,29.73,ESE,112,0.0,-999.0,93,-99.99,,,0.00,Acu-Link.com,2013-04-13 08:00:00,
2013-04-13 04:33:00,70.7,68.6,29.73,ESE,112,0.0,-999.0,93,-99.99,,,0.00,Acu-Link.com,2013-04-13 08:33:00,
2013-04-13 04:52:00,70.5,68.7,29.74,ESE,112,0.0,-999.0,94,-99.99,,,0.00,Acu-Link.com,2013-04-13 08:52:00,
2013-04-13 05:07:00,70.7,69.2,29.73,SE,135,1.1,-999.0,95,-99.99,,,0.00,Acu-Link.com,2013-04-13 09:07:00,
2013-04-13 05:37:00,70.7,69.2,29.73,SE,135,0.0,-999.0,95,-99.99,,,0.00,Acu-Link.com,2013-04-13 09:37:00,
2013-04-13 05:52:00,70.3,68.8,29.74,ESE,112,0.0,-999.0,95,-99.99,,,0.00,Acu-Link.com,2013-04-13 09:52:00,
2013-04-13 06:07:00,70.2,69.0,29.74,ESE,112,0.0,-999.0,96,-99.99,,,0.00,Acu-Link.com,2013-04-13 10:07:00,
2013-04-13 06:22:00,70.5,69.6,29.73,ESE,112,0.0,-999.0,97,-99.99,,,0.00,Acu-Link.com,2013-04-13 10:22:00,
2013-04-13 06:38:00,70.9,69.7,29.74,West,270,0.0,-999.0,96,-99.99,,,0.00,Acu-Link.com,2013-04-13 10:38:00,
2013-04-13 06:53:00,70.9,69.7,29.74,ESE,112,1.1,-999.0,96,-99.99,,,0.00,Acu-Link.com,2013-04-13 10:53:00,
2013-04-13 07:08:00,71.1,70.2,29.75,SSE,157,0.0,-999.0,97,-99.99,,,0.00,Acu-Link.com,2013-04-13 11:08:00,
2013-04-13 07:23:00,71.4,70.5,29.77,ESE,112,0.0,-999.0,97,-99.99,,,0.00,Acu-Link.com,2013-04-13 11:23:00,
2013-04-13 07:38:00,72.3,70.8,29.75,SE,135,2.2,-999.0,95,-99.99,,,0.00,Acu-Link.com,2013-04-13 11:38:00,
2013-04-13 07:53:00,72.7,71.2,29.75,West,270,0.0,-999.0,95,-99.99,,,0.00,Acu-Link.com,2013-04-13 11:53:00,
2013-04-13 08:08:00,73.6,71.8,29.76,WNW,292,0.0,-999.0,94,-99.99,,,0.00,Acu-Link.com,2013-04-13 12:08:00,
2013-04-13 08:23:00,73.8,71.6,29.75,South,180,0.0,-999.0,93,-99.99,,,0.00,Acu-Link.com,2013-04-13 12:23:00,
2013-04-13 08:39:00,74.8,72.0,29.77,WSW,247,1.7,-999.0,91,-99.99,,,0.00,Acu-Link.com,2013-04-13 12:39:00,
2013-04-13 09:09:00,77.2,72.3,29.79,South,180,1.7,-999.0,85,-99.99,,,0.00,Acu-Link.com,2013-04-13 13:09:00,
2013-04-13 09:40:00,78.6,72.3,29.79,SE,135,2.7,-999.0,81,-99.99,,,0.00,Acu-Link.com,2013-04-13 13:40:00,
2013-04-13 09:55:00,80.4,72.9,29.81,West,270,0.0,-999.0,78,-99.99,,,0.00,Acu-Link.com,2013-04-13 13:55:00,
2013-04-13 10:10:00,80.1,73.4,29.80,ESE,112,0.0,-999.0,80,-99.99,,,0.00,Acu-Link.com,2013-04-13 14:10:00,
2013-04-13 10:56:00,81.5,72.4,29.81,SE,135,2.7,-999.0,74,-99.99,,,0.00,Acu-Link.com,2013-04-13 14:56:00,
2013-04-13 11:12:00,84.9,72.7,29.80,WSW,247,1.7,-999.0,67,-99.99,,,0.00,Acu-Link.com,2013-04-13 15:12:00,
2013-04-13 11:27:00,84.2,72.9,29.80,NW,315,2.2,-999.0,69,-99.99,,,0.00,Acu-Link.com,2013-04-13 15:27:00,
2013-04-13 11:42:00,83.7,71.1,29.80,WSW,247,1.7,-999.0,66,-99.99,,,0.00,Acu-Link.com,2013-04-13 15:42:00,
2013-04-13 11:57:00,84.9,72.2,29.80,SSW,202,2.7,-999.0,66,-99.99,,,0.00,Acu-Link.com,2013-04-13 15:57:00,
2013-04-13 12:13:00,86.0,72.4,29.80,West,270,1.7,-999.0,64,-99.99,,,0.00,Acu-Link.com,2013-04-13 16:13:00,
2013-04-13 12:28:00,85.3,73.1,29.80,SE,135,3.2,-999.0,67,-99.99,,,0.00,Acu-Link.com,2013-04-13 16:28:00,
2013-04-13 12:43:00,85.1,73.3,29.79,SSE,157,1.7,-999.0,68,-99.99,,,0.00,Acu-Link.com,2013-04-13 16:43:00,
2013-04-13 12:58:00,89.8,73.5,29.79,ESE,112,3.7,-999.0,59,-99.99,,,0.00,Acu-Link.com,2013-04-13 16:58:00,
2013-04-13 13:29:00,88.2,72.5,29.79,ESE,112,2.7,-999.0,60,-99.99,,,0.00,Acu-Link.com,2013-04-13 17:29:00,
2013-04-13 14:00:00,89.6,72.3,29.77,South,180,1.7,-999.0,57,-99.99,,,0.00,Acu-Link.com,2013-04-13 18:00:00,
2013-04-13 14:15:00,86.0,72.4,29.78,East,90,3.2,-999.0,64,-99.99,,,0.00,Acu-Link.com,2013-04-13 18:15:00,
2013-04-13 14:30:00,81.0,70.7,29.77,East,90,4.2,-999.0,71,-99.99,,,0.00,Acu-Link.com,2013-04-13 18:30:00,
2013-04-13 14:45:00,82.4,70.8,29.76,ESE,112,1.1,-999.0,68,-99.99,,,0.00,Acu-Link.com,2013-04-13 18:45:00,
2013-04-13 15:01:00,82.8,69.8,29.76,SE,135,6.8,-999.0,65,-99.99,,,0.00,Acu-Link.com,2013-04-13 19:01:00,
2013-04-13 15:31:00,80.4,68.8,29.76,NNW,337,1.7,-999.0,68,-99.99,,,0.00,Acu-Link.com,2013-04-13 19:31:00,
2013-04-13 15:47:00,78.8,68.2,29.76,East,90,5.3,-999.0,70,-99.99,,,0.00,Acu-Link.com,2013-04-13 19:47:00,
2013-04-13 16:02:00,80.1,69.0,29.75,ESE,112,2.7,-999.0,69,-99.99,,,0.00,Acu-Link.com,2013-04-13 20:02:00,
2013-04-13 16:17:00,80.8,68.8,29.75,ESE,112,4.7,-999.0,67,-99.99,,,0.00,Acu-Link.com,2013-04-13 20:17:00,
2013-04-13 16:32:00,81.9,69.4,29.74,NE,45,2.2,-999.0,66,-99.99,,,0.00,Acu-Link.com,2013-04-13 20:32:00,
2013-04-13 16:48:00,81.0,68.1,29.75,SSW,202,1.7,-999.0,65,-99.99,,,0.00,Acu-Link.com,2013-04-13 20:48:00,
2013-04-13 17:03:00,79.9,68.4,29.75,ENE,67,4.7,-999.0,68,-99.99,,,0.00,Acu-Link.com,2013-04-13 21:03:00,
2013-04-13 17:18:00,78.3,68.1,29.75,East,90,5.3,-999.0,71,-99.99,,,0.00,Acu-Link.com,2013-04-13 21:18:00,
2013-04-13 17:33:00,79.0,67.9,29.74,SW,225,1.7,-999.0,69,-99.99,,,0.00,Acu-Link.com,2013-04-13 21:33:00,
2013-04-13 17:49:00,78.3,67.3,29.75,SE,135,2.7,-999.0,69,-99.99,,,0.00,Acu-Link.com,2013-04-13 21:49:00,
2013-04-13 18:04:00,80.2,67.8,29.76,SE,135,1.1,-999.0,66,-99.99,,,0.00,Acu-Link.com,2013-04-13 22:04:00,
2013-04-13 18:19:00,80.2,67.8,29.76,NNE,22,1.1,-999.0,66,-99.99,,,0.00,Acu-Link.com,2013-04-13 22:19:00,
2013-04-13 18:35:00,79.0,67.5,29.76,NW,315,3.7,-999.0,68,-99.99,,,0.00,Acu-Link.com,2013-04-13 22:35:00,
2013-04-13 18:50:00,77.7,67.1,29.77,ESE,112,2.7,-999.0,70,-99.99,,,0.00,Acu-Link.com,2013-04-13 22:50:00,
2013-04-13 19:05:00,76.1,66.4,29.75,ESE,112,2.2,-999.0,72,-99.99,,,0.00,Acu-Link.com,2013-04-13 23:05:00,
2013-04-13 19:29:00,74.5,66.8,29.77,SSE,157,2.2,-999.0,77,-99.99,,,0.00,Acu-Link.com,2013-04-13 23:29:00,
2013-04-13 19:44:00,73.2,66.3,29.77,South,180,0.0,-999.0,79,-99.99,,,0.00,Acu-Link.com,2013-04-13 23:44:00,
2013-04-13 19:59:00,72.3,66.1,29.76,NE,45,1.7,-999.0,81,-99.99,,,0.00,Acu-Link.com,2013-04-13 23:59:00,
2013-04-13 20:14:00,71.6,66.5,29.77,South,180,2.2,-999.0,84,-99.99,,,0.00,Acu-Link.com,2013-04-14 00:14:00,
2013-04-13 20:30:00,71.4,67.0,29.78,ENE,67,2.2,-999.0,86,-99.99,,,0.00,Acu-Link.com,2013-04-14 00:30:00,
2013-04-13 20:45:00,70.9,66.5,29.77,ESE,112,2.7,-999.0,86,-99.99,,,0.00,Acu-Link.com,2013-04-14 00:45:00,
2013-04-13 21:00:00,70.9,66.8,29.79,ESE,112,0.0,-999.0,87,-99.99,,,0.00,Acu-Link.com,2013-04-14 01:00:00,
2013-04-13 21:15:00,71.1,67.4,29.78,WNW,292,2.2,-999.0,88,-99.99,,,0.00,Acu-Link.com,2013-04-14 01:15:00,
2013-04-13 21:31:00,70.9,67.5,29.78,SW,225,1.1,-999.0,89,-99.99,,,0.00,Acu-Link.com,2013-04-14 01:31:00,
2013-04-13 21:46:00,71.1,67.7,29.80,SSE,157,0.0,-999.0,89,-99.99,,,0.00,Acu-Link.com,2013-04-14 01:46:00,
2013-04-13 22:01:00,71.1,68.0,29.79,South,180,0.0,-999.0,90,-99.99,,,0.00,Acu-Link.com,2013-04-14 02:01:00,
2013-04-13 22:32:00,70.9,68.1,29.81,East,90,3.7,-999.0,91,-99.99,,,0.00,Acu-Link.com,2013-04-14 02:32:00,
2013-04-13 22:47:00,71.1,68.3,29.82,NW,315,1.7,-999.0,91,-99.99,,,0.00,Acu-Link.com,2013-04-14 02:47:00,
2013-04-13 23:02:00,71.4,68.6,29.82,West,270,0.0,-999.0,91,-99.99,,,0.00,Acu-Link.com,2013-04-14 03:02:00,
2013-04-13 23:18:00,71.4,68.6,29.84,WSW,247,1.1,-999.0,91,-99.99,,,0.00,Acu-Link.com,2013-04-14 03:18:00,
2013-04-13 23:33:00,71.6,69.1,29.82,WSW,247,1.1,-999.0,92,-99.99,,,0.00,Acu-Link.com,2013-04-14 03:33:00,
2013-04-13 23:48:00,71.8,69.3,29.83,SE,135,2.7,-999.0,92,-99.99,,,0.00,Acu-Link.com,2013-04-14 03:48:00,